Location: Borz?cin
(51.1714°N, 19.6030°E)
Time: 17:27:47
(UTC+00:00)

Cosmos 1805 Rocket - Pass Details

Date: 19 May 2025
Orbit: 600 x 623 km, 82.5° (Epoch: 20 June)

Event Time Altitude Azimuth Distance (km) Brightness Sun altitude
Rises 21:24:15 0° 354° (N) 2,920 8.6 -17.0°
Reaches altitude 10° 21:26:37 10° 2° (N) 2,007 7.3 -17.1°
Maximum altitude 21:30:49 41° 73° (ENE) 914 4.4 -17.3°
Enters shadow 21:32:41 27° 124° (ESE) 1,207 4.6 -17.4°
